Marathon, FL

9:53 AM EDT on March 24, 2017 (GMT -0400)
Florida Keys Marathon

Weather History for KMTH - October, 2013

Change the Weather History Date:

Sunday, October 6, 2013

  Actual Average Record
Temperature  
Mean Temperature 83 °F 82 °F  
Max Temperature 89 °F 87 °F 91 °F (2002)
Min Temperature 76 °F 77 °F 69 °F (2014)
Degree Days  
Heating Degree Days 0 0  
Month to date heating degree days 0 0  
Since 1 July heating degree days 0 0  
Cooling Degree Days 18 17  
Month to date cooling degree days 112 107  
Year to date cooling degree days 4418 4061  
Growing Degree Days 32 (Base 50)    
Moisture  
Dew Point 71 °F    
Average Humidity 69    
Maximum Humidity 82    
Minimum Humidity 55    
Precipitation  
Precipitation 0.00 in 0.16 in 1.29 in (1999)
Month to date precipitation 0.76 1.06  
Year to date precipitation 43.15 37.61  
Snow  
Snow 0.00 in - - ()
Month to date snowfall 0.0  
Since 1 July snowfall 0.0  
Since 1 September snowfall 0.0  
Snow Depth 0.00 in    
Sea Level Pressure  
Sea Level Pressure 29.92 in    
Wind  
Wind Speed 2 mph (East)    
Max Wind Speed 8 mph    
Max Gust Speed 10 mph    
Visibility 10 miles    
Events      
T = Trace of Precipitation, MM = Missing Value Source: NWS Daily Summary

Daily Weather History Graph

Daily Weather History Graph

Search for Another Location

Airport or City:

Trip Planner

Search our weather history database for the weather conditions in past years. The results will help you decide how hot, cold, wet, or windy it might be!

Date:

Astronomy

Oct. 06, 2013 Rise Set
Actual Time 7:18 AM EDT 7:05 PM EDT
Civil Twilight 6:55 AM EDT 7:28 PM EDT
Nautical Twilight 6:29 AM EDT 7:54 PM EDT
Astronomical Twilight 6:02 AM EDT 8:21 PM EDT
Moon 8:47 AM EDT (10/6) 8:19 PM EDT (10/6)
Length of Visible Light 12h 33m
Length of Day
11h 47m
Waxing Crescent, 3% of the Moon is Illuminated
Oct 6
Waxing Crescent
Oct 11
First Quarter
Oct 18
Full
Oct 26
Last Quarter
Nov 3
New

Hourly Weather History & Observations

Time (EDT) Temp. Heat Index Dew Point Humidity Pressure Visibility Wind Dir Wind Speed Gust Speed Precip Events Conditions
12:53 AM 82.0 °F 85.5 °F 69.1 °F 65% 29.97 in 10.0 mi East 3.5 mph - N/A   Clear
1:53 AM 81.0 °F 84.4 °F 70.0 °F 69% 29.95 in 10.0 mi East 3.5 mph - N/A   Clear
2:53 AM 78.1 °F - 69.1 °F 74% 29.92 in 10.0 mi Calm Calm - N/A   Clear
3:53 AM 77.0 °F - 69.1 °F 76% 29.91 in 10.0 mi Calm Calm - N/A   Clear
4:53 AM 75.9 °F - 69.1 °F 79% 29.90 in 10.0 mi Calm Calm - N/A   Clear
5:53 AM 75.9 °F - 70.0 °F 82% 29.91 in 10.0 mi Calm Calm - N/A   Clear
6:53 AM 75.9 °F - 70.0 °F 82% 29.92 in 10.0 mi Calm Calm - N/A   Partly Cloudy
7:53 AM 78.1 °F - 71.1 °F 79% 29.93 in 10.0 mi Calm Calm - N/A   Clear
8:53 AM 84.0 °F 89.0 °F 71.1 °F 65% 29.94 in 10.0 mi East 3.5 mph - N/A   Clear
9:53 AM 84.0 °F 89.0 °F 71.1 °F 65% 29.96 in 10.0 mi SE 4.6 mph - N/A   Clear
10:53 AM 87.1 °F 93.6 °F 72.0 °F 61% 29.96 in 10.0 mi Calm Calm - N/A   Clear
11:53 AM 87.1 °F 92.8 °F 71.1 °F 59% 29.96 in 10.0 mi Variable 4.6 mph - N/A   Clear
12:53 PM 87.1 °F 92.0 °F 70.0 °F 57% 29.94 in 10.0 mi Variable 3.5 mph - N/A   Clear
1:53 PM 88.0 °F 93.8 °F 71.1 °F 57% 29.92 in 10.0 mi South 4.6 mph - N/A   Partly Cloudy
2:53 PM 84.9 °F 91.4 °F 73.0 °F 67% 29.91 in 10.0 mi Calm Calm - N/A   Mostly Cloudy
3:53 PM 86.0 °F 93.0 °F 73.0 °F 65% 29.89 in 10.0 mi NNE 4.6 mph - N/A   Mostly Cloudy
4:53 PM 86.0 °F 92.2 °F 72.0 °F 63% 29.89 in 10.0 mi NE 5.8 mph - N/A   Clear
5:44 PM 86.0 °F 91.8 °F 71.6 °F 62% 29.89 in 10.0 mi Calm Calm - N/A   Mostly Cloudy
5:53 PM 84.9 °F 90.1 °F 71.1 °F 63% 29.90 in 10.0 mi Calm Calm - N/A   Overcast
6:11 PM 84.2 °F 89.6 °F 71.6 °F 66% 29.90 in 10.0 mi Calm Calm - N/A   Scattered Clouds
6:53 PM 82.9 °F 88.0 °F 72.0 °F 69% 29.91 in 10.0 mi Calm Calm - N/A   Partly Cloudy
7:53 PM 82.0 °F 86.7 °F 72.0 °F 71% 29.91 in 10.0 mi Calm Calm - N/A   Clear
8:53 PM 80.1 °F 83.8 °F 72.0 °F 76% 29.92 in 10.0 mi Calm Calm - N/A   Clear
9:53 PM 80.1 °F 83.8 °F 72.0 °F 76% 29.93 in 10.0 mi Calm Calm - N/A   Clear
10:53 PM 80.1 °F 83.8 °F 72.0 °F 76% 29.93 in 10.0 mi Calm Calm - N/A   Clear
11:53 PM 82.0 °F 87.4 °F 73.0 °F 74% 29.91 in 10.0 mi SE 4.6 mph - N/A   Clear